DLH55Y EDDF-KMIA

Flight info

Callsign DLH55Y
Flight time N/A
Altitude 38000
Route OBOKA4G OBOKA Z29 TORNU DCT VELED DCT BREDA DCT GALSO Q63 ERING L179 UGBET Q60 OKSAW DCT FELCA DCT FADZU DCT BANBA DCT ADARA/M085F390 NATH OMSAT/M085F400 DCT CARAC M201 DRYED DCT KINER DCT JNFOX DCT FLUPS DCT MAPYL/N0487F400 G437 ZQA BR49V NICKO VIICE2
Aircraft A359/H-SDE2E3GHIJ3J4J5LM1ORWXY/LB1D1

Departure

Time N/A
Airport Frankfurt Main Airport (EDDF)

Arrival

Time 2026-05-08 01:20
Airport Miami International Airport (KMIA)
Time Latitude Longitude Altitude Speed Heading
2026-05-07 21:00 45.38190 -55.51023 39941 ft 421 kts 240°
2026-05-07 21:01 45.34837 -55.57854 39939 ft 421 kts 240°
2026-05-07 21:01 45.31477 -55.64683 39936 ft 422 kts 240°
2026-05-07 21:02 45.28112 -55.71504 39936 ft 422 kts 240°
2026-05-07 21:02 45.24746 -55.78312 39936 ft 421 kts 240°
2026-05-07 21:03 45.21378 -55.85105 39929 ft 420 kts 240°
2026-05-07 21:03 45.18046 -55.91811 39929 ft 418 kts 240°
2026-05-07 21:04 45.14670 -55.98593 39928 ft 418 kts 240°
2026-05-07 21:04 45.11311 -56.05325 39927 ft 418 kts 240°
2026-05-07 21:05 45.07980 -56.11979 39919 ft 416 kts 240°
2026-05-07 21:05 45.04643 -56.18632 39920 ft 414 kts 240°
2026-05-07 21:06 45.01314 -56.25256 39922 ft 413 kts 240°
2026-05-07 21:06 44.97980 -56.31877 39921 ft 413 kts 240°
2026-05-07 21:07 44.94641 -56.38488 39913 ft 413 kts 240°
2026-05-07 21:07 44.91310 -56.45070 39912 ft 412 kts 240°
2026-05-07 21:08 44.87975 -56.51646 39910 ft 412 kts 240°
2026-05-07 21:08 44.84636 -56.58213 39907 ft 412 kts 240°
2026-05-07 21:09 44.81295 -56.64771 39913 ft 412 kts 240°
2026-05-07 21:09 44.77946 -56.71327 39906 ft 411 kts 240°
2026-05-07 21:10 44.74607 -56.77848 39901 ft 410 kts 240°
2026-05-07 21:10 44.71267 -56.84359 39901 ft 410 kts 240°
2026-05-07 21:11 44.67925 -56.90858 39896 ft 410 kts 240°
2026-05-07 21:11 44.62915 -57.00573 39897 ft 409 kts 240°
2026-05-07 21:12 44.59572 -57.07038 39898 ft 409 kts 240°
2026-05-07 21:12 44.56221 -57.13505 39898 ft 409 kts 240°
2026-05-07 21:13 44.52897 -57.19901 39899 ft 408 kts 240°
2026-05-07 21:13 44.49555 -57.26319 39893 ft 407 kts 240°
2026-05-07 21:14 44.46220 -57.32713 39896 ft 407 kts 240°
2026-05-07 21:14 44.42875 -57.39110 39896 ft 407 kts 240°
2026-05-07 21:15 44.39537 -57.45479 39893 ft 405 kts 240°
2026-05-07 21:15 44.36208 -57.51813 39893 ft 403 kts 240°
2026-05-07 21:16 44.32888 -57.58122 39891 ft 403 kts 240°
2026-05-07 21:16 44.29561 -57.64431 39893 ft 403 kts 240°
2026-05-07 21:17 44.26233 -57.70727 39874 ft 403 kts 240°
2026-05-07 21:17 44.22909 -57.77000 39886 ft 403 kts 240°
2026-05-07 21:18 44.19575 -57.83279 39889 ft 402 kts 240°
2026-05-07 21:18 44.16242 -57.89543 39883 ft 402 kts 240°
2026-05-07 21:19 44.12909 -57.95794 39884 ft 402 kts 240°
2026-05-07 21:19 44.09566 -58.02051 39892 ft 402 kts 239°
2026-05-07 21:20 44.06231 -58.08275 39880 ft 400 kts 239°
2026-05-07 21:20 44.02905 -58.14471 39874 ft 400 kts 239°
2026-05-07 21:21 43.99578 -58.20657 39851 ft 399 kts 239°
2026-05-07 21:21 43.96251 -58.26830 39870 ft 399 kts 239°
2026-05-07 21:22 43.92921 -58.32996 39867 ft 399 kts 239°
2026-05-07 21:22 43.89586 -58.39158 39867 ft 399 kts 239°
2026-05-07 21:23 43.86250 -58.45309 39861 ft 399 kts 239°
2026-05-07 21:23 43.82908 -58.51457 39865 ft 400 kts 239°
2026-05-07 21:24 43.79557 -58.57608 39858 ft 400 kts 239°
2026-05-07 21:24 43.76772 -58.62713 39857 ft 400 kts 239°
2026-05-07 21:25 43.72861 -58.69863 39859 ft 400 kts 239°
2026-05-07 21:25 43.70067 -58.74961 39857 ft 401 kts 239°
2026-05-07 21:26 43.66693 -58.81107 39856 ft 401 kts 239°
2026-05-07 21:26 43.63317 -58.87242 39854 ft 402 kts 239°
2026-05-07 21:27 43.59932 -58.93379 39852 ft 402 kts 239°
2026-05-07 21:27 43.56540 -58.99517 39856 ft 403 kts 239°
2026-05-07 21:28 43.53112 -59.05711 39846 ft 404 kts 239°
2026-05-07 21:28 43.49694 -59.11869 39850 ft 405 kts 239°
2026-05-07 21:29 43.46271 -59.18023 39846 ft 405 kts 239°
2026-05-07 21:29 43.42841 -59.24179 39838 ft 406 kts 239°
2026-05-07 21:30 43.39413 -59.30320 39841 ft 408 kts 239°
2026-05-07 21:30 43.35954 -59.36500 39841 ft 408 kts 239°
2026-05-07 21:31 43.32468 -59.42715 39837 ft 408 kts 239°
2026-05-07 21:31 43.29019 -59.48853 39836 ft 409 kts 239°
2026-05-07 21:32 43.25510 -59.55086 39835 ft 411 kts 239°
2026-05-07 21:32 43.22031 -59.61251 39833 ft 411 kts 239°
2026-05-07 21:33 43.18504 -59.67487 39826 ft 411 kts 239°
2026-05-07 21:33 43.14998 -59.73673 39828 ft 411 kts 239°
2026-05-07 21:34 43.11486 -59.79857 39831 ft 411 kts 239°
2026-05-07 21:34 43.07970 -59.86035 39831 ft 411 kts 239°
2026-05-07 21:35 43.04451 -59.92207 39835 ft 411 kts 239°
2026-05-07 21:35 43.00932 -59.98364 39827 ft 411 kts 239°
2026-05-07 21:36 42.97508 -60.04584 39826 ft 408 kts 241°
2026-05-07 21:36 42.94333 -60.10986 39826 ft 407 kts 242°
2026-05-07 21:37 42.91171 -60.17393 39823 ft 407 kts 242°
2026-05-07 21:37 42.87986 -60.23726 39823 ft 407 kts 242°
2026-05-07 21:38 42.84763 -60.30064 39823 ft 407 kts 241°
2026-05-07 21:38 42.81531 -60.36393 39824 ft 407 kts 241°
2026-05-07 21:39 42.78296 -60.42717 39820 ft 406 kts 241°
2026-05-07 21:39 42.75074 -60.49003 39817 ft 404 kts 241°
2026-05-07 21:40 42.71860 -60.55265 39818 ft 404 kts 241°
2026-05-07 21:40 42.68646 -60.61516 39817 ft 403 kts 241°
2026-05-07 21:41 42.65425 -60.67766 39815 ft 404 kts 241°
2026-05-07 21:41 42.62746 -60.72955 39815 ft 404 kts 241°
2026-05-07 21:42 42.58973 -60.80247 39818 ft 404 kts 241°
2026-05-07 21:42 42.55738 -60.86482 39810 ft 404 kts 241°
2026-05-07 21:43 42.52502 -60.92709 39809 ft 404 kts 241°
2026-05-07 21:43 42.49262 -60.98931 39810 ft 404 kts 240°
2026-05-07 21:44 42.46018 -61.05146 39813 ft 404 kts 240°
2026-05-07 21:44 42.42772 -61.11352 39812 ft 404 kts 240°
2026-05-07 21:45 42.39526 -61.17546 39810 ft 404 kts 240°
2026-05-07 21:45 42.36195 -61.23679 39807 ft 407 kts 237°
2026-05-07 21:46 42.32492 -61.29507 39807 ft 409 kts 234°
2026-05-07 21:46 42.28729 -61.35280 39807 ft 409 kts 235°
2026-05-07 21:47 42.25012 -61.41092 39790 ft 409 kts 235°
2026-05-07 21:47 42.21320 -61.46941 39809 ft 410 kts 235°
2026-05-07 21:48 42.17628 -61.52792 39804 ft 409 kts 235°
2026-05-07 21:48 42.13940 -61.58624 39807 ft 409 kts 235°
2026-05-07 21:49 42.10246 -61.64449 39802 ft 409 kts 235°
2026-05-07 21:49 42.06550 -61.70267 39796 ft 409 kts 235°
2026-05-07 21:50 42.02846 -61.76085 39799 ft 410 kts 235°
2026-05-07 21:50 41.99137 -61.81899 39799 ft 410 kts 235°
2026-05-07 21:51 41.95420 -61.87716 39797 ft 411 kts 234°
2026-05-07 21:51 41.91690 -61.93542 39799 ft 412 kts 234°
2026-05-07 21:52 41.87981 -61.99321 39798 ft 412 kts 234°
2026-05-07 21:52 41.84236 -62.05145 39801 ft 412 kts 234°
2026-05-07 21:53 41.80484 -62.10969 39798 ft 414 kts 234°
2026-05-07 21:53 41.76716 -62.16809 39801 ft 415 kts 234°
2026-05-07 21:54 41.72939 -62.22648 39796 ft 415 kts 234°
2026-05-07 21:54 41.69160 -62.28479 39790 ft 415 kts 234°
2026-05-07 21:55 41.65376 -62.34305 39796 ft 415 kts 234°
2026-05-07 21:55 41.61592 -62.40123 39796 ft 415 kts 234°
2026-05-07 21:56 41.57803 -62.45937 39796 ft 415 kts 234°
2026-05-07 21:56 41.54008 -62.51748 39804 ft 415 kts 234°
2026-05-07 21:57 41.50207 -62.57558 39796 ft 416 kts 234°
2026-05-07 21:57 41.46399 -62.63367 39796 ft 416 kts 234°
2026-05-07 21:58 41.42584 -62.69173 39790 ft 416 kts 234°
2026-05-07 21:58 41.38766 -62.74974 39796 ft 416 kts 234°
2026-05-07 21:59 41.34947 -62.80766 39787 ft 416 kts 234°
2026-05-07 21:59 41.31123 -62.86557 39791 ft 417 kts 233°
2026-05-07 22:00 41.27292 -62.92343 39786 ft 417 kts 233°
2026-05-07 22:00 41.23458 -62.98123 39793 ft 417 kts 233°
2026-05-07 22:01 41.19618 -63.03899 39787 ft 417 kts 233°
2026-05-07 22:01 41.15777 -63.09669 39787 ft 417 kts 233°
2026-05-07 22:02 41.11922 -63.15443 39793 ft 418 kts 234°
2026-05-07 22:02 41.08062 -63.21220 39785 ft 418 kts 234°
2026-05-07 22:03 41.04229 -63.26945 39782 ft 418 kts 234°
2026-05-07 22:03 41.00366 -63.32703 39775 ft 418 kts 234°
2026-05-07 22:04 40.96505 -63.38446 39788 ft 419 kts 234°
2026-05-07 22:04 40.92625 -63.44208 39810 ft 419 kts 234°
2026-05-07 22:05 40.88754 -63.49941 39792 ft 417 kts 234°
2026-05-07 22:05 40.84897 -63.55647 39787 ft 417 kts 234°
2026-05-07 22:06 40.81025 -63.61367 39794 ft 418 kts 234°
2026-05-07 22:06 40.77145 -63.67084 39800 ft 418 kts 234°
2026-05-07 22:07 40.73256 -63.72803 39799 ft 419 kts 234°
2026-05-07 22:07 40.69371 -63.78496 39798 ft 416 kts 234°
2026-05-07 22:08 40.65516 -63.84144 39800 ft 414 kts 234°
2026-05-07 22:08 40.61663 -63.89784 39800 ft 414 kts 234°
2026-05-07 22:09 40.58462 -63.94460 39803 ft 414 kts 234°
2026-05-07 22:09 40.54606 -64.00080 39794 ft 415 kts 234°
2026-05-07 22:10 40.50737 -64.05712 39815 ft 415 kts 234°
2026-05-07 22:10 40.46875 -64.11318 39807 ft 413 kts 234°
2026-05-07 22:11 40.43018 -64.16907 39774 ft 413 kts 234°
2026-05-07 22:11 40.39150 -64.22512 39811 ft 415 kts 233°
2026-05-07 22:12 40.35259 -64.28130 39808 ft 417 kts 233°
2026-05-07 22:12 40.31358 -64.33749 39812 ft 417 kts 233°
2026-05-07 22:13 40.27458 -64.39358 39803 ft 416 kts 233°
2026-05-07 22:13 40.23551 -64.44970 39813 ft 418 kts 233°
2026-05-07 22:14 40.19622 -64.50603 39805 ft 419 kts 233°
2026-05-07 22:14 40.15692 -64.56224 39811 ft 419 kts 233°
2026-05-07 22:15 40.11758 -64.61843 39800 ft 420 kts 233°
2026-05-07 22:15 40.07801 -64.67484 39813 ft 422 kts 233°
2026-05-07 22:16 40.03829 -64.73136 39810 ft 423 kts 232°
2026-05-07 22:16 39.99849 -64.78786 39810 ft 423 kts 232°
2026-05-07 22:17 39.95868 -64.84428 39809 ft 423 kts 232°
2026-05-07 22:17 39.91886 -64.90063 39809 ft 423 kts 232°
2026-05-07 22:18 39.85906 -64.98504 39838 ft 423 kts 233°
2026-05-07 22:19 39.81914 -65.04126 39786 ft 423 kts 233°
2026-05-07 22:19 39.77901 -65.09771 39814 ft 427 kts 233°
2026-05-07 22:20 39.73853 -65.15453 39813 ft 429 kts 233°
2026-05-07 22:20 39.69785 -65.21148 39812 ft 430 kts 233°
2026-05-07 22:21 39.65713 -65.26834 39806 ft 430 kts 233°
2026-05-07 22:21 39.61626 -65.32534 39820 ft 431 kts 234°
2026-05-07 22:22 39.57550 -65.38212 39809 ft 430 kts 234°
2026-05-07 22:22 39.53478 -65.43875 39810 ft 429 kts 234°
2026-05-07 22:23 39.49405 -65.49527 39807 ft 430 kts 234°
2026-05-07 22:23 39.45321 -65.55186 39813 ft 430 kts 234°
2026-05-07 22:24 39.41259 -65.60802 39810 ft 430 kts 234°
2026-05-07 22:24 39.37179 -65.66428 39812 ft 427 kts 234°
2026-05-07 22:25 39.33129 -65.72003 39812 ft 425 kts 234°
2026-05-07 22:25 39.29085 -65.77568 39815 ft 425 kts 234°
2026-05-07 22:26 39.25036 -65.83128 39819 ft 425 kts 234°
2026-05-07 22:26 39.20987 -65.88676 39816 ft 425 kts 234°
2026-05-07 22:27 39.16934 -65.94217 39825 ft 424 kts 234°
2026-05-07 22:27 39.12922 -65.99693 39815 ft 420 kts 234°
2026-05-07 22:28 39.08915 -66.05152 39819 ft 419 kts 234°
2026-05-07 22:28 39.04911 -66.10601 39816 ft 419 kts 234°
2026-05-07 22:29 39.00916 -66.16025 39819 ft 420 kts 235°
2026-05-07 22:29 38.96891 -66.21485 39805 ft 421 kts 235°
2026-05-07 22:30 38.92884 -66.26911 39813 ft 421 kts 234°
2026-05-07 22:30 38.88865 -66.32337 39810 ft 419 kts 233°
2026-05-07 22:31 38.84853 -66.37740 39822 ft 418 kts 234°
2026-05-07 22:31 38.80839 -66.43144 39814 ft 418 kts 234°
2026-05-07 22:32 38.76823 -66.48543 39819 ft 419 kts 234°
2026-05-07 22:32 38.72803 -66.53937 39818 ft 419 kts 234°
2026-05-07 22:33 38.68781 -66.59326 39813 ft 419 kts 233°
2026-05-07 22:33 38.64729 -66.64695 39817 ft 421 kts 231°
2026-05-07 22:34 38.60041 -66.69350 39820 ft 431 kts 223°
2026-05-07 22:34 38.54986 -66.73535 39819 ft 434 kts 221°
2026-05-07 22:35 38.49874 -66.77629 39811 ft 434 kts 221°
2026-05-07 22:35 38.44742 -66.81749 39819 ft 436 kts 221°
2026-05-07 22:36 38.39612 -66.85884 39818 ft 436 kts 221°
2026-05-07 22:36 38.34515 -66.89996 39832 ft 436 kts 221°
2026-05-07 22:37 38.29391 -66.94122 39818 ft 435 kts 221°
2026-05-07 22:37 38.24277 -66.98235 39820 ft 435 kts 221°
2026-05-07 22:38 38.19702 -67.01908 39819 ft 435 kts 221°
2026-05-07 22:38 38.14579 -67.06015 39804 ft 435 kts 221°
2026-05-07 22:39 38.09451 -67.10119 39820 ft 436 kts 221°
2026-05-07 22:39 38.04317 -67.14220 39828 ft 436 kts 221°
2026-05-07 22:40 37.99175 -67.18320 39823 ft 436 kts 221°
2026-05-07 22:40 37.94032 -67.22411 39843 ft 435 kts 221°
2026-05-07 22:41 37.88914 -67.26478 39829 ft 434 kts 221°
2026-05-07 22:41 37.83805 -67.30532 39829 ft 433 kts 221°
2026-05-07 22:42 37.78698 -67.34579 39829 ft 433 kts 221°
2026-05-07 22:42 37.73588 -67.38622 39830 ft 434 kts 221°
2026-05-07 22:43 37.68495 -67.42644 39831 ft 434 kts 221°
2026-05-07 22:43 37.63375 -67.46680 39839 ft 434 kts 221°
2026-05-07 22:44 37.58247 -67.50714 39813 ft 434 kts 221°
2026-05-07 22:44 37.53126 -67.54734 39842 ft 433 kts 221°
2026-05-07 22:45 37.48005 -67.58753 39832 ft 433 kts 221°
2026-05-07 22:45 37.42890 -67.62760 39839 ft 433 kts 221°
2026-05-07 22:46 37.37774 -67.66757 39833 ft 432 kts 221°
2026-05-07 22:46 37.32668 -67.70740 39839 ft 431 kts 222°
2026-05-07 22:47 37.27574 -67.74711 39842 ft 431 kts 222°
2026-05-07 22:47 37.22484 -67.78673 39849 ft 431 kts 221°
2026-05-07 22:48 37.17823 -67.82296 39835 ft 432 kts 221°
2026-05-07 22:48 37.12706 -67.86267 39846 ft 433 kts 221°
2026-05-07 22:49 37.07584 -67.90233 39856 ft 433 kts 221°
2026-05-07 22:49 37.02456 -67.94196 39852 ft 433 kts 221°
2026-05-07 22:50 36.97318 -67.98165 39860 ft 437 kts 221°
2026-05-07 22:50 36.92120 -68.02178 39856 ft 441 kts 221°
2026-05-07 22:51 36.86888 -68.06201 39859 ft 442 kts 221°
2026-05-07 22:51 36.81641 -68.10227 39870 ft 442 kts 221°
2026-05-07 22:52 36.76377 -68.14266 39874 ft 446 kts 220°
2026-05-07 22:52 36.71108 -68.18302 39874 ft 448 kts 220°
2026-05-07 22:53 36.65828 -68.22333 39874 ft 446 kts 220°
2026-05-07 22:53 36.60543 -68.26361 39857 ft 445 kts 220°
2026-05-07 22:54 36.55482 -68.30703 39881 ft 440 kts 226°
2026-05-07 22:54 36.50685 -68.35405 39873 ft 439 kts 227°
2026-05-07 22:55 36.45930 -68.40160 39878 ft 439 kts 227°
2026-05-07 22:55 36.41176 -68.44906 39878 ft 439 kts 227°
2026-05-07 22:56 36.36406 -68.49645 39881 ft 439 kts 227°
2026-05-07 22:56 36.31631 -68.54372 39887 ft 438 kts 227°
2026-05-07 22:57 36.27684 -68.58270 39881 ft 436 kts 227°
2026-05-07 22:57 36.22950 -68.62943 39878 ft 435 kts 227°
2026-05-07 22:58 36.18216 -68.67607 39886 ft 436 kts 227°
2026-05-07 22:58 36.13464 -68.72288 39892 ft 436 kts 227°
2026-05-07 22:59 36.08739 -68.76933 39888 ft 436 kts 227°
2026-05-07 22:59 36.03986 -68.81595 39894 ft 436 kts 227°
2026-05-07 23:00 35.99221 -68.86264 39892 ft 438 kts 227°
2026-05-07 23:00 35.94458 -68.90922 39900 ft 436 kts 227°
2026-05-07 23:01 35.89702 -68.95563 39908 ft 436 kts 227°
2026-05-07 23:01 35.84950 -69.00195 39900 ft 436 kts 227°
2026-05-07 23:02 35.80187 -69.04832 39901 ft 438 kts 227°
2026-05-07 23:02 35.75394 -69.09495 39906 ft 440 kts 227°
2026-05-07 23:03 35.70576 -69.14168 39908 ft 441 kts 227°
2026-05-07 23:03 35.65761 -69.18829 39911 ft 441 kts 227°
2026-05-07 23:04 35.60950 -69.23476 39901 ft 439 kts 227°
2026-05-07 23:04 35.56141 -69.28121 39913 ft 440 kts 227°
2026-05-07 23:05 35.51365 -69.32729 39914 ft 440 kts 227°
2026-05-07 23:05 35.46553 -69.37362 39917 ft 440 kts 227°
2026-05-07 23:06 35.41779 -69.41951 39909 ft 440 kts 227°
2026-05-07 23:06 35.36955 -69.46581 39920 ft 441 kts 227°
2026-05-07 23:08 35.21882 -69.60996 39883 ft 439 kts 226°
2026-05-07 23:08 35.17039 -69.65621 39931 ft 444 kts 226°
2026-05-07 23:09 35.12156 -69.70271 39926 ft 446 kts 226°
2026-05-07 23:09 35.07258 -69.74923 39934 ft 446 kts 226°
2026-05-07 23:10 35.03188 -69.78782 39933 ft 446 kts 226°
2026-05-07 23:10 34.98286 -69.83427 39932 ft 447 kts 226°
2026-05-07 23:11 34.93360 -69.88091 39941 ft 448 kts 226°
2026-05-07 23:11 34.88441 -69.92736 39939 ft 447 kts 226°
2026-05-07 23:12 34.83668 -69.97238 39943 ft 447 kts 226°
2026-05-07 23:12 34.78691 -70.01925 39936 ft 448 kts 227°
2026-05-07 23:13 34.73749 -70.06578 39946 ft 450 kts 227°
2026-05-07 23:13 34.68798 -70.11228 39941 ft 450 kts 226°
2026-05-07 23:14 34.63838 -70.15877 39945 ft 450 kts 226°
2026-05-07 23:14 34.58886 -70.20512 39940 ft 450 kts 227°
2026-05-07 23:15 34.53939 -70.25132 39946 ft 448 kts 227°
2026-05-07 23:15 34.49009 -70.29732 39946 ft 447 kts 227°
2026-05-07 23:16 34.44080 -70.34326 39943 ft 447 kts 227°
2026-05-07 23:16 34.39156 -70.38909 39944 ft 447 kts 227°
2026-05-07 23:17 34.34237 -70.43479 39951 ft 447 kts 227°
2026-05-07 23:17 34.29293 -70.48064 39947 ft 447 kts 227°
2026-05-07 23:18 34.24363 -70.52631 39948 ft 446 kts 227°
2026-05-07 23:18 34.19436 -70.57185 39949 ft 445 kts 227°
2026-05-07 23:19 34.14515 -70.61728 39946 ft 446 kts 227°
2026-05-07 23:19 34.09573 -70.66288 39949 ft 447 kts 227°
2026-05-07 23:20 34.04661 -70.70810 39955 ft 447 kts 227°
2026-05-07 23:20 33.99716 -70.75355 39958 ft 447 kts 227°
2026-05-07 23:21 33.94766 -70.79898 39956 ft 448 kts 227°
2026-05-07 23:21 33.89780 -70.84474 39958 ft 453 kts 226°
2026-05-07 23:22 33.84749 -70.89078 39955 ft 454 kts 226°
2026-05-07 23:22 33.79737 -70.93648 39948 ft 451 kts 226°
2026-05-07 23:23 33.74744 -70.98200 39964 ft 450 kts 226°
2026-05-07 23:23 33.69739 -71.02766 39956 ft 454 kts 226°
2026-05-07 23:24 33.64786 -71.07410 39962 ft 454 kts 228°
2026-05-07 23:24 33.59886 -71.12272 39960 ft 454 kts 229°
2026-05-07 23:25 33.55058 -71.17066 39964 ft 454 kts 228°
2026-05-07 23:25 33.50139 -71.21901 39954 ft 457 kts 228°
2026-05-07 23:26 33.45226 -71.26705 39964 ft 461 kts 228°
2026-05-07 23:26 33.40236 -71.31565 39966 ft 462 kts 227°
2026-05-07 23:27 33.32752 -71.38837 39969 ft 462 kts 227°
2026-05-07 23:27 33.27752 -71.43693 39974 ft 464 kts 227°
2026-05-07 23:28 33.22717 -71.48578 39974 ft 467 kts 227°
2026-05-07 23:28 33.17672 -71.53460 39977 ft 467 kts 227°
2026-05-07 23:29 33.12642 -71.58319 39977 ft 466 kts 227°
2026-05-07 23:29 33.07618 -71.63164 39965 ft 465 kts 227°
2026-05-07 23:30 33.02568 -71.68035 39983 ft 468 kts 227°
2026-05-07 23:30 32.97492 -71.72922 39981 ft 469 kts 227°
2026-05-07 23:31 32.92415 -71.77796 39982 ft 469 kts 227°
2026-05-07 23:31 32.87329 -71.82674 39982 ft 469 kts 227°
2026-05-07 23:32 32.82248 -71.87538 39982 ft 469 kts 227°
2026-05-07 23:32 32.77167 -71.92398 39988 ft 468 kts 227°
2026-05-07 23:33 32.72168 -71.97170 39985 ft 466 kts 227°
2026-05-07 23:33 32.67115 -72.01988 39986 ft 466 kts 227°
2026-05-07 23:34 32.62062 -72.06800 39970 ft 466 kts 227°
2026-05-07 23:34 32.56997 -72.11616 39993 ft 467 kts 227°
2026-05-07 23:35 32.51926 -72.16431 39984 ft 467 kts 227°
2026-05-07 23:35 32.46849 -72.21242 39987 ft 467 kts 227°
2026-05-07 23:36 32.41775 -72.26043 39989 ft 467 kts 227°
2026-05-07 23:36 32.36777 -72.30766 39991 ft 467 kts 227°
2026-05-07 23:37 32.31702 -72.35555 39989 ft 467 kts 227°
2026-05-07 23:37 32.26621 -72.40343 39987 ft 467 kts 227°
2026-05-07 23:38 32.21543 -72.45120 39991 ft 467 kts 227°
2026-05-07 23:38 32.16459 -72.49897 39991 ft 467 kts 227°
2026-05-07 23:39 32.11376 -72.54665 39992 ft 467 kts 227°
2026-05-07 23:39 32.06290 -72.59429 39988 ft 467 kts 227°
2026-05-07 23:40 32.01207 -72.64182 39998 ft 466 kts 227°
2026-05-07 23:40 31.96133 -72.68920 39997 ft 465 kts 227°
2026-05-07 23:41 31.91060 -72.73653 39991 ft 467 kts 227°
2026-05-07 23:41 31.85956 -72.78410 39997 ft 468 kts 227°
2026-05-07 23:42 31.80850 -72.83157 39993 ft 468 kts 227°
2026-05-07 23:42 31.75740 -72.87900 39996 ft 468 kts 227°
2026-05-07 23:43 31.70626 -72.92641 39986 ft 468 kts 227°
2026-05-07 23:43 31.65504 -72.97384 40001 ft 469 kts 227°
2026-05-07 23:44 31.60380 -73.02121 39995 ft 469 kts 227°
2026-05-07 23:44 31.55256 -73.06851 40000 ft 468 kts 227°
2026-05-07 23:45 31.50133 -73.11574 39996 ft 468 kts 227°
2026-05-07 23:45 31.45003 -73.16298 39995 ft 470 kts 226°
2026-05-07 23:46 31.39853 -73.21034 39998 ft 472 kts 226°
2026-05-07 23:46 31.34687 -73.25775 39995 ft 472 kts 226°
2026-05-07 23:47 31.29523 -73.30506 40008 ft 472 kts 226°
2026-05-07 23:47 31.24363 -73.35228 39983 ft 470 kts 226°
2026-05-07 23:48 31.19211 -73.39940 40008 ft 471 kts 226°
2026-05-07 23:48 31.14075 -73.44627 40001 ft 472 kts 226°
2026-05-07 23:49 31.08901 -73.49342 40010 ft 472 kts 226°
2026-05-07 23:49 31.03724 -73.54053 40011 ft 472 kts 226°
2026-05-07 23:50 30.98536 -73.58769 40007 ft 472 kts 225°
2026-05-07 23:50 30.93344 -73.63481 40010 ft 473 kts 225°
2026-05-07 23:51 30.88145 -73.68191 40015 ft 473 kts 225°
2026-05-07 23:51 30.82965 -73.72878 40015 ft 472 kts 225°
2026-05-07 23:52 30.77779 -73.77564 40018 ft 472 kts 225°
2026-05-07 23:52 30.72593 -73.82247 40012 ft 472 kts 225°
2026-05-07 23:53 30.67399 -73.86928 40015 ft 473 kts 225°
2026-05-07 23:53 30.62201 -73.91605 40015 ft 473 kts 225°
2026-05-07 23:54 30.57881 -73.95488 40015 ft 473 kts 225°
2026-05-07 23:54 30.52489 -73.99933 40017 ft 478 kts 220°
2026-05-07 23:55 30.46871 -74.04069 40018 ft 479 kts 219°
2026-05-07 23:55 30.40351 -74.08889 40017 ft 478 kts 220°
2026-05-07 23:56 30.35685 -74.12404 40019 ft 478 kts 220°
2026-05-07 23:56 30.30132 -74.16617 40018 ft 477 kts 220°
2026-05-07 23:57 30.24611 -74.20807 40011 ft 478 kts 220°
2026-05-07 23:57 30.19038 -74.25029 40018 ft 480 kts 220°
2026-05-07 23:58 30.13450 -74.29250 40018 ft 480 kts 220°
2026-05-07 23:58 30.07852 -74.33472 40020 ft 480 kts 220°
2026-05-07 23:59 30.02262 -74.37683 40018 ft 480 kts 220°
2026-05-07 23:59 29.96668 -74.41893 40020 ft 480 kts 220°
2026-05-08 00:00 29.91062 -74.46105 40020 ft 481 kts 220°
2026-05-08 00:00 29.85479 -74.50295 40020 ft 481 kts 220°
2026-05-08 00:01 29.79875 -74.54494 40018 ft 481 kts 220°
2026-05-08 00:01 29.74268 -74.58691 40017 ft 481 kts 220°
2026-05-08 00:02 29.68657 -74.62884 40017 ft 481 kts 220°
2026-05-08 00:02 29.63049 -74.67070 40017 ft 481 kts 220°
2026-05-08 00:03 29.57519 -74.71191 40025 ft 481 kts 220°
2026-05-08 00:03 29.51908 -74.75368 40023 ft 481 kts 220°
2026-05-08 00:04 29.46281 -74.79552 40025 ft 481 kts 219°
2026-05-08 00:04 29.40669 -74.83718 40029 ft 480 kts 219°
2026-05-08 00:05 29.35059 -74.87876 40029 ft 481 kts 219°
2026-05-08 00:05 29.29482 -74.92005 40032 ft 481 kts 219°
2026-05-08 00:06 29.23869 -74.96156 40023 ft 481 kts 219°
2026-05-08 00:06 29.18228 -75.00324 40031 ft 482 kts 219°
2026-05-08 00:07 29.12584 -75.04485 40031 ft 483 kts 219°
2026-05-08 00:07 29.06939 -75.08640 40033 ft 482 kts 219°
2026-05-08 00:08 29.01299 -75.12788 40035 ft 482 kts 219°
2026-05-08 00:08 28.95690 -75.16909 40037 ft 483 kts 219°
2026-05-08 00:09 28.90040 -75.21055 40040 ft 483 kts 219°
2026-05-08 00:09 28.84372 -75.25207 40034 ft 484 kts 219°
2026-05-08 00:10 28.78699 -75.29357 40038 ft 484 kts 219°
2026-05-08 00:10 28.73033 -75.33496 40022 ft 484 kts 219°
2026-05-08 00:11 28.67397 -75.37610 40036 ft 485 kts 219°
2026-05-08 00:11 28.61712 -75.41753 40039 ft 485 kts 219°
2026-05-08 00:12 28.56029 -75.45889 40036 ft 484 kts 219°
2026-05-08 00:12 28.50358 -75.50010 40039 ft 484 kts 219°
2026-05-08 00:13 28.44684 -75.54130 40031 ft 484 kts 218°
2026-05-08 00:13 28.39004 -75.58248 40043 ft 484 kts 218°
2026-05-08 00:14 28.33378 -75.62322 40041 ft 484 kts 218°
2026-05-08 00:14 28.27697 -75.66430 40039 ft 484 kts 218°
2026-05-08 00:15 28.22007 -75.70539 40044 ft 484 kts 218°
2026-05-08 00:15 28.16321 -75.74642 40045 ft 486 kts 218°
2026-05-08 00:16 28.10624 -75.78747 40042 ft 486 kts 218°
2026-05-08 00:16 28.04919 -75.82850 40045 ft 486 kts 218°
2026-05-08 00:17 27.99233 -75.86935 40044 ft 486 kts 218°
2026-05-08 00:17 27.93632 -75.90954 40044 ft 486 kts 218°
2026-05-08 00:18 27.87864 -75.95090 40046 ft 487 kts 217°
2026-05-08 00:18 27.82004 -75.98987 40049 ft 492 kts 212°
2026-05-08 00:19 27.75859 -76.02379 40048 ft 493 kts 211°
2026-05-08 00:19 27.69993 -76.05501 40044 ft 493 kts 210°
2026-05-08 00:20 27.63822 -76.08773 40054 ft 494 kts 210°
2026-05-08 00:20 27.57604 -76.12079 40054 ft 495 kts 210°
2026-05-08 00:21 27.51707 -76.15218 40044 ft 495 kts 210°
2026-05-08 00:21 27.48367 -76.16994 40060 ft 495 kts 210°
2026-05-08 00:22 27.42165 -76.20291 40057 ft 494 kts 210°
2026-05-08 00:22 27.35939 -76.23596 40045 ft 495 kts 210°
2026-05-08 00:23 27.29703 -76.26903 40051 ft 496 kts 210°
2026-05-08 00:23 27.23457 -76.30210 40052 ft 496 kts 210°
2026-05-08 00:24 27.17214 -76.33511 40052 ft 496 kts 210°
2026-05-08 00:24 27.10967 -76.36810 40051 ft 496 kts 210°
2026-05-08 00:25 27.04722 -76.40107 40052 ft 496 kts 210°
2026-05-08 00:25 26.98476 -76.43402 40054 ft 496 kts 210°
2026-05-08 00:26 26.92224 -76.46688 40053 ft 496 kts 210°
2026-05-08 00:26 26.85974 -76.49970 40054 ft 496 kts 210°
2026-05-08 00:27 26.79764 -76.53234 40044 ft 496 kts 209°
2026-05-08 00:27 26.73507 -76.56516 40048 ft 497 kts 209°
2026-05-08 00:28 26.67245 -76.59787 40051 ft 497 kts 209°
2026-05-08 00:28 26.60984 -76.63055 40053 ft 497 kts 209°
2026-05-08 00:29 26.54723 -76.66322 40051 ft 497 kts 209°
2026-05-08 00:29 26.48455 -76.69594 40050 ft 497 kts 209°
2026-05-08 00:30 26.42186 -76.72874 40053 ft 498 kts 209°
2026-05-08 00:30 26.35915 -76.76148 40052 ft 498 kts 209°
2026-05-08 00:31 26.29632 -76.79407 40050 ft 498 kts 209°
2026-05-08 00:31 26.23349 -76.82664 40049 ft 498 kts 209°
2026-05-08 00:32 26.17055 -76.85927 40051 ft 499 kts 209°
2026-05-08 00:32 26.10755 -76.89190 40053 ft 499 kts 209°
2026-05-08 00:33 26.04454 -76.92449 40050 ft 499 kts 209°
2026-05-08 00:33 25.98155 -76.95704 40050 ft 499 kts 208°
2026-05-08 00:34 25.91851 -76.98958 40050 ft 500 kts 208°
2026-05-08 00:34 25.85528 -77.02218 40050 ft 501 kts 208°
2026-05-08 00:35 25.79203 -77.05474 40054 ft 501 kts 208°
2026-05-08 00:35 25.72880 -77.08726 40050 ft 501 kts 208°
2026-05-08 00:36 25.66557 -77.11973 40045 ft 501 kts 208°
2026-05-08 00:36 25.60221 -77.15225 40050 ft 502 kts 208°
2026-05-08 00:37 25.53880 -77.18474 40053 ft 502 kts 208°
2026-05-08 00:38 25.44370 -77.23345 40050 ft 502 kts 208°
2026-05-08 00:38 25.38090 -77.26555 40045 ft 501 kts 208°
2026-05-08 00:39 25.31713 -77.29806 40051 ft 501 kts 208°
2026-05-08 00:39 25.25386 -77.33029 40056 ft 501 kts 208°
2026-05-08 00:40 25.19099 -77.36230 40058 ft 501 kts 208°
2026-05-08 00:40 25.13919 -77.38913 40059 ft 499 kts 211°
2026-05-08 00:41 25.07532 -77.44152 40056 ft 490 kts 230°
2026-05-08 00:41 25.03757 -77.50293 40061 ft 482 kts 248°
2026-05-08 00:42 25.02122 -77.56152 40065 ft 477 kts 263°
2026-05-08 00:42 25.01569 -77.63405 40059 ft 475 kts 269°
2026-05-08 00:43 25.01292 -77.70691 40052 ft 475 kts 269°
2026-05-08 00:43 25.01011 -77.77955 40053 ft 475 kts 269°
2026-05-08 00:44 25.00687 -77.85228 40047 ft 475 kts 269°
2026-05-08 00:44 25.00342 -77.92454 40045 ft 475 kts 268°
2026-05-08 00:45 24.99987 -77.99773 40043 ft 475 kts 268°
2026-05-08 00:45 24.99634 -78.06998 40043 ft 475 kts 268°
2026-05-08 00:46 24.99277 -78.14265 40040 ft 475 kts 269°
2026-05-08 00:46 25.00073 -78.21426 40045 ft 472 kts 285°
2026-05-08 00:47 25.01851 -78.28392 40045 ft 472 kts 287°
2026-05-08 00:47 25.03669 -78.35330 40043 ft 472 kts 287°
2026-05-08 00:48 25.05492 -78.42292 40040 ft 472 kts 286°
2026-05-08 00:48 25.07296 -78.49198 39813 ft 459 kts 286°
2026-05-08 00:48 25.08169 -78.52547 39394 ft 453 kts 287°
2026-05-08 00:49 25.09046 -78.55911 38354 ft 461 kts 287°
2026-05-08 00:49 25.09943 -78.59354 37102 ft 471 kts 287°
2026-05-08 00:49 25.10852 -78.62849 36059 ft 476 kts 287°
2026-05-08 00:49 25.11768 -78.66374 35046 ft 480 kts 287°
2026-05-08 00:50 25.12691 -78.69932 34016 ft 484 kts 287°
2026-05-08 00:50 25.13618 -78.73505 32863 ft 487 kts 287°
2026-05-08 00:50 25.14551 -78.77109 31694 ft 490 kts 287°
2026-05-08 00:50 25.15488 -78.80730 30511 ft 493 kts 287°
2026-05-08 00:51 25.16428 -78.84370 29366 ft 494 kts 287°
2026-05-08 00:51 25.17364 -78.87996 28607 ft 487 kts 287°
2026-05-08 00:51 25.18273 -78.91521 27880 ft 481 kts 287°
2026-05-08 00:51 25.19193 -78.95094 27127 ft 476 kts 287°
2026-05-08 00:52 25.20093 -78.98594 26432 ft 471 kts 286°
2026-05-08 00:52 25.20968 -79.01999 25742 ft 466 kts 286°
2026-05-08 00:52 25.21848 -79.05424 25086 ft 461 kts 286°
2026-05-08 00:52 25.22719 -79.08820 24443 ft 457 kts 286°
2026-05-08 00:53 25.23579 -79.12178 23818 ft 452 kts 286°
2026-05-08 00:53 25.24430 -79.15502 23145 ft 447 kts 286°
2026-05-08 00:53 25.25270 -79.18789 22368 ft 443 kts 286°
2026-05-08 00:53 25.26105 -79.22060 21546 ft 441 kts 286°
2026-05-08 00:54 25.26935 -79.25313 20772 ft 439 kts 286°
2026-05-08 00:54 25.27759 -79.28546 20012 ft 436 kts 286°
2026-05-08 00:54 25.28577 -79.31759 19271 ft 434 kts 286°
2026-05-08 00:54 25.29392 -79.34962 18549 ft 431 kts 286°
2026-05-08 00:55 25.30200 -79.38142 17773 ft 429 kts 286°
2026-05-08 00:55 25.31004 -79.41306 17005 ft 426 kts 286°
2026-05-08 00:55 25.31800 -79.44440 16282 ft 422 kts 286°
2026-05-08 00:55 25.32587 -79.47545 15612 ft 417 kts 286°
2026-05-08 00:56 25.33365 -79.50619 15198 ft 414 kts 286°
2026-05-08 00:56 25.34143 -79.53692 15059 ft 415 kts 286°
2026-05-08 00:56 25.34920 -79.56768 15036 ft 416 kts 286°
2026-05-08 00:56 25.35697 -79.59845 15036 ft 415 kts 286°
2026-05-08 00:57 25.36472 -79.62916 15023 ft 415 kts 286°
2026-05-08 00:57 25.37247 -79.65992 15023 ft 415 kts 286°
2026-05-08 00:57 25.38021 -79.69069 15034 ft 415 kts 286°
2026-05-08 00:57 25.38931 -79.72090 15037 ft 415 kts 294°
2026-05-08 00:58 25.40356 -79.74795 15038 ft 414 kts 304°
2026-05-08 00:58 25.42017 -79.77406 15032 ft 414 kts 306°
2026-05-08 00:58 25.43698 -79.79995 15029 ft 414 kts 306°
2026-05-08 00:58 25.45375 -79.82586 15034 ft 414 kts 305°
2026-05-08 00:59 25.47049 -79.85182 14998 ft 412 kts 305°
2026-05-08 00:59 25.48688 -79.87733 14481 ft 404 kts 305°
2026-05-08 00:59 25.50315 -79.90270 13576 ft 407 kts 305°
2026-05-08 00:59 25.51950 -79.92822 12820 ft 404 kts 305°
2026-05-08 01:00 25.53506 -79.95252 12331 ft 379 kts 306°
2026-05-08 01:00 25.54979 -79.97555 11852 ft 355 kts 306°
2026-05-08 01:00 25.56344 -79.99690 11438 ft 333 kts 306°
2026-05-08 01:00 25.57643 -80.01725 11031 ft 315 kts 306°
2026-05-08 01:01 25.58885 -80.03671 10459 ft 305 kts 306°
2026-05-08 01:01 25.60100 -80.05577 9772 ft 301 kts 306°
2026-05-08 01:01 25.61318 -80.07483 9219 ft 297 kts 306°
2026-05-08 01:01 25.62506 -80.09344 9033 ft 296 kts 306°
2026-05-08 01:02 25.63691 -80.11201 8995 ft 295 kts 306°
2026-05-08 01:02 25.64854 -80.13029 8996 ft 294 kts 305°
2026-05-08 01:02 25.65882 -80.14960 8631 ft 287 kts 297°
2026-05-08 01:02 25.66747 -80.16945 8179 ft 287 kts 295°
2026-05-08 01:03 25.67597 -80.18968 8021 ft 292 kts 295°
2026-05-08 01:03 25.68454 -80.21009 7914 ft 291 kts 295°
2026-05-08 01:03 25.69306 -80.23039 7313 ft 289 kts 295°
2026-05-08 01:03 25.70152 -80.25041 6654 ft 286 kts 295°
2026-05-08 01:04 25.70932 -80.27062 6188 ft 284 kts 288°
2026-05-08 01:04 25.71191 -80.29216 6014 ft 283 kts 270°
2026-05-08 01:04 25.71124 -80.31385 5996 ft 281 kts 267°
2026-05-08 01:04 25.71007 -80.33545 5997 ft 280 kts 266°
2026-05-08 01:05 25.70892 -80.35699 6003 ft 280 kts 267°
2026-05-08 01:05 25.70781 -80.37857 6000 ft 280 kts 267°
2026-05-08 01:05 25.70675 -80.40008 6002 ft 280 kts 267°
2026-05-08 01:05 25.70569 -80.42162 6000 ft 280 kts 267°
2026-05-08 01:06 25.70463 -80.44315 5999 ft 277 kts 267°
2026-05-08 01:06 25.70310 -80.46367 5811 ft 258 kts 265°
2026-05-08 01:06 25.70132 -80.48277 5571 ft 241 kts 265°
2026-05-08 01:06 25.69965 -80.50069 5362 ft 226 kts 265°
2026-05-08 01:07 25.69838 -80.51746 5175 ft 211 kts 272°
2026-05-08 01:07 25.70037 -80.53286 4925 ft 198 kts 290°
2026-05-08 01:07 25.70709 -80.54588 4527 ft 198 kts 315°
2026-05-08 01:07 25.71866 -80.55389 4177 ft 197 kts 345°
2026-05-08 01:08 25.73190 -80.55392 4014 ft 190 kts 19°
2026-05-08 01:08 25.74207 -80.54495 4010 ft 190 kts 51°
2026-05-08 01:08 25.74952 -80.53282 3998 ft 191 kts 56°
2026-05-08 01:08 25.75667 -80.52004 4002 ft 197 kts 56°
2026-05-08 01:09 25.76401 -80.50717 3999 ft 198 kts 56°
2026-05-08 01:09 25.77146 -80.49426 3997 ft 199 kts 55°
2026-05-08 01:09 25.77487 -80.47952 4005 ft 204 kts 93°
2026-05-08 01:09 25.77225 -80.46425 3948 ft 201 kts 103°
2026-05-08 01:10 25.77005 -80.44894 3795 ft 201 kts 89°
2026-05-08 01:10 25.77182 -80.43363 3660 ft 201 kts 75°
2026-05-08 01:10 25.77558 -80.41878 3503 ft 198 kts 71°
2026-05-08 01:10 25.77967 -80.40427 3536 ft 203 kts 72°
2026-05-08 01:11 25.78278 -80.38893 3956 ft 203 kts 79°
2026-05-08 01:11 25.78199 -80.37378 4006 ft 202 kts 109°
2026-05-08 01:11 25.77355 -80.36159 4002 ft 202 kts 146°
2026-05-08 01:11 25.76037 -80.35716 4000 ft 200 kts 182°
2026-05-08 01:12 25.74730 -80.36153 4013 ft 197 kts 209°
2026-05-08 01:12 25.73437 -80.36651 3967 ft 200 kts 189°
2026-05-08 01:12 25.72031 -80.36832 3626 ft 203 kts 197°
2026-05-08 01:12 25.70895 -80.37639 3249 ft 192 kts 232°
2026-05-08 01:13 25.70240 -80.38884 3038 ft 186 kts 245°
2026-05-08 01:13 25.69728 -80.40196 3006 ft 185 kts 251°
2026-05-08 01:13 25.69484 -80.41595 3001 ft 185 kts 264°
2026-05-08 01:13 25.69370 -80.43015 3004 ft 185 kts 265°
2026-05-08 01:14 25.69290 -80.44437 3000 ft 186 kts 270°
2026-05-08 01:14 25.69539 -80.45790 2985 ft 175 kts 293°
2026-05-08 01:14 25.70283 -80.46836 2995 ft 175 kts 322°
2026-05-08 01:14 25.71425 -80.47291 3007 ft 177 kts 347°
2026-05-08 01:15 25.72641 -80.47475 3001 ft 176 kts 352°
2026-05-08 01:15 25.73863 -80.47614 2996 ft 177 kts 352°
2026-05-08 01:15 25.75092 -80.47754 2995 ft 177 kts 351°
2026-05-08 01:15 25.76329 -80.47778 3001 ft 180 kts
2026-05-08 01:16 25.77447 -80.47186 2996 ft 179 kts 41°
2026-05-08 01:16 25.77985 -80.45974 2893 ft 173 kts 78°
2026-05-08 01:16 25.78111 -80.44628 2748 ft 177 kts 86°
2026-05-08 01:16 25.78162 -80.43255 2601 ft 178 kts 88°
2026-05-08 01:17 25.78204 -80.41879 2383 ft 178 kts 88°
2026-05-08 01:17 25.78252 -80.40517 2140 ft 176 kts 89°
2026-05-08 01:17 25.78312 -80.39164 1743 ft 177 kts 89°
2026-05-08 01:17 25.78381 -80.37808 1358 ft 173 kts 90°
2026-05-08 01:18 25.78421 -80.36514 1054 ft 161 kts 92°
2026-05-08 01:18 25.78448 -80.35315 859 ft 151 kts 91°
2026-05-08 01:18 25.78507 -80.34187 665 ft 141 kts 90°
2026-05-08 01:18 25.78550 -80.33134 465 ft 132 kts 91°
2026-05-08 01:19 25.78590 -80.32123 301 ft 134 kts 91°
2026-05-08 01:19 25.78631 -80.31098 86 ft 130 kts 89°
2026-05-08 01:19 25.78670 -80.30112 25 ft 125 kts 89°
2026-05-08 01:19 25.78705 -80.29164 25 ft 115 kts 87°
2026-05-08 01:20 25.78734 -80.28471 21 ft 54 kts 89°
2026-05-08 01:20 25.78748 -80.28094 21 ft 48 kts 88°
2026-05-08 01:20 25.78764 -80.27804 24 ft 26 kts 87°
2026-05-08 01:20 25.78771 -80.27616 25 ft 20 kts 81°
2026-05-08 01:21 25.78836 -80.27559 23 ft 9 kts
2026-05-08 01:21 25.78919 -80.27539 22 ft 15 kts 25°
2026-05-08 01:21 25.78981 -80.27430 24 ft 19 kts 58°
2026-05-08 01:21 25.79007 -80.27395 25 ft 0 kts 44°